Stündliche Wetter Kyurovschina

Heute, 8 Mai, Samstag

Zeit Temperatur Niederschläge Wind Luftdruck Luftfeuchtigkeit
00:00 +4°C° 0 mm 1 m/S 746 mmHg 92%
01:00 +3°C° 0 mm 0 m/S 746 mmHg 92%
02:00 +3°C° 0 mm 0 m/S 746 mmHg 93%
03:00 +5°C° 0.3 mm 1 m/S 745 mmHg 94%
04:00 +5°C° 0.3 mm 1 m/S 745 mmHg 94%
05:00 +4°C° 0.3 mm 2 m/S 745 mmHg 95%
06:00 +3°C° 1.2 mm 2 m/S 745 mmHg 96%
07:00 +2°C° 1.2 mm 3 m/S 746 mmHg 97%
08:00 0°C° 1.2 mm 4 m/S 746 mmHg 97%
09:00 +1°C° 1.2 mm 4 m/S 746 mmHg 96%
10:00 +1°C° 1.2 mm 4 m/S 747 mmHg 94%
11:00 +1°C° 1.2 mm 4 m/S 747 mmHg 92%
12:00 +3°C° 0.2 mm 4 m/S 747 mmHg 91%
13:00 +3°C° 0.2 mm 4 m/S 748 mmHg 89%
14:00 +4°C° 0.2 mm 4 m/S 748 mmHg 88%
15:00 +4°C° 0.1 mm 4 m/S 749 mmHg 87%
16:00 +4°C° 0.1 mm 4 m/S 749 mmHg 86%
17:00 +4°C° 0.1 mm 4 m/S 749 mmHg 85%
18:00 +3°C° 0 mm 3 m/S 750 mmHg 87%
19:00 +2°C° 0 mm 3 m/S 750 mmHg 89%
20:00 +2°C° 0 mm 2 m/S 751 mmHg 90%
21:00 +1°C° 0 mm 2 m/S 751 mmHg 90%
22:00 0°C° 0 mm 3 m/S 751 mmHg 89%
23:00 0°C° 0 mm 3 m/S 752 mmHg 88%

Morgen, 9 Mai, Sonntag

Zeit Temperatur Niederschläge Wind Luftdruck Luftfeuchtigkeit
00:00 -1°C° 0 mm 3 m/S 752 mmHg 89%
01:00 -1°C° 0 mm 3 m/S 752 mmHg 90%
02:00 -1°C° 0 mm 3 m/S 753 mmHg 92%
03:00 -1°C° 0 mm 3 m/S 753 mmHg 92%
04:00 -1°C° 0 mm 3 m/S 754 mmHg 93%
05:00 -1°C° 0 mm 3 m/S 754 mmHg 93%
06:00 +1°C° 0 mm 3 m/S 755 mmHg 85%
07:00 +3°C° 0 mm 3 m/S 755 mmHg 77%
08:00 +5°C° 0 mm 3 m/S 755 mmHg 69%
09:00 +7°C° 0 mm 3 m/S 756 mmHg 64%
10:00 +8°C° 0 mm 3 m/S 756 mmHg 58%
11:00 +10°C° 0 mm 3 m/S 756 mmHg 52%
12:00 +10°C° 0 mm 3 m/S 756 mmHg 48%
13:00 +11°C° 0 mm 4 m/S 756 mmHg 45%
14:00 +12°C° 0 mm 4 m/S 757 mmHg 41%
15:00 +11°C° 0 mm 4 m/S 757 mmHg 42%
16:00 +11°C° 0 mm 3 m/S 757 mmHg 43%
17:00 +11°C° 0 mm 3 m/S 757 mmHg 44%
18:00 +10°C° 0 mm 3 m/S 757 mmHg 51%
19:00 +8°C° 0 mm 2 m/S 757 mmHg 58%
20:00 +7°C° 0 mm 2 m/S 757 mmHg 65%
21:00 +6°C° 0 mm 2 m/S 757 mmHg 68%
22:00 +5°C° 0 mm 3 m/S 757 mmHg 71%
23:00 +5°C° 0 mm 3 m/S 757 mmHg 74%

übermorgen, 10 Mai, Montag

Zeit Temperatur Niederschläge Wind Luftdruck Luftfeuchtigkeit
00:00 +5°C° 0.3 mm 4 m/S 757 mmHg 79%
01:00 +5°C° 0.3 mm 4 m/S 757 mmHg 84%
02:00 +5°C° 0.3 mm 5 m/S 757 mmHg 89%
03:00 +5°C° 0.2 mm 5 m/S 757 mmHg 89%
04:00 +5°C° 0.2 mm 5 m/S 756 mmHg 89%
05:00 +6°C° 0.2 mm 5 m/S 756 mmHg 89%
06:00 +7°C° 0 mm 5 m/S 757 mmHg 87%
07:00 +8°C° 0 mm 5 m/S 757 mmHg 85%
08:00 +10°C° 0 mm 4 m/S 757 mmHg 83%
09:00 +10°C° 0 mm 5 m/S 757 mmHg 77%
10:00 +13°C° 0 mm 5 m/S 758 mmHg 71%
11:00 +15°C° 0 mm 5 m/S 758 mmHg 65%
12:00 +16°C° 0 mm 5 m/S 758 mmHg 60%
13:00 +19°C° 0 mm 5 m/S 758 mmHg 56%
14:00 +20°C° 0 mm 5 m/S 758 mmHg 52%
15:00 +20°C° 0 mm 5 m/S 758 mmHg 53%
16:00 +21°C° 0 mm 5 m/S 758 mmHg 54%
17:00 +21°C° 0 mm 4 m/S 758 mmHg 55%
18:00 +19°C° 0 mm 4 m/S 758 mmHg 61%
19:00 +18°C° 0 mm 4 m/S 759 mmHg 67%
20:00 +15°C° 0 mm 4 m/S 759 mmHg 73%
21:00 +14°C° 0 mm 4 m/S 759 mmHg 75%
22:00 +14°C° 0 mm 4 m/S 760 mmHg 77%
23:00 +13°C° 0 mm 5 m/S 760 mmHg 79%

11 Mai, Dienstag

Zeit Temperatur Niederschläge Wind Luftdruck Luftfeuchtigkeit
00:00 +13°C° 0 mm 5 m/S 760 mmHg 80%
01:00 +12°C° 0 mm 5 m/S 760 mmHg 81%
02:00 +12°C° 0 mm 5 m/S 760 mmHg 82%
03:00 +12°C° 0 mm 5 m/S 760 mmHg 81%
04:00 +11°C° 0 mm 4 m/S 760 mmHg 81%
05:00 +11°C° 0 mm 4 m/S 760 mmHg 80%
06:00 +12°C° 0 mm 5 m/S 760 mmHg 73%
07:00 +14°C° 0 mm 5 m/S 760 mmHg 66%
08:00 +15°C° 0 mm 5 m/S 761 mmHg 59%
09:00 +16°C° 0 mm 6 m/S 761 mmHg 54%
10:00 +19°C° 0 mm 6 m/S 761 mmHg 49%
11:00 +20°C° 0 mm 6 m/S 761 mmHg 44%
12:00 +20°C° 0 mm 6 m/S 760 mmHg 43%
13:00 +21°C° 0 mm 6 m/S 760 mmHg 41%
14:00 +21°C° 0 mm 6 m/S 760 mmHg 40%
15:00 +21°C° 0 mm 6 m/S 760 mmHg 42%
16:00 +21°C° 0 mm 5 m/S 760 mmHg 44%
17:00 +21°C° 0 mm 5 m/S 760 mmHg 46%
18:00 +19°C° 0 mm 4 m/S 760 mmHg 52%
19:00 +17°C° 0 mm 4 m/S 760 mmHg 58%
20:00 +16°C° 0 mm 3 m/S 760 mmHg 65%
21:00 +14°C° 0 mm 3 m/S 760 mmHg 68%
22:00 +13°C° 0 mm 3 m/S 760 mmHg 72%
23:00 +13°C° 0 mm 3 m/S 760 mmHg 76%

12 Mai, Mittwoch

Zeit Temperatur Niederschläge Wind Luftdruck Luftfeuchtigkeit
00:00 +12°C° 0 mm 3 m/S 760 mmHg 80%
01:00 +11°C° 0 mm 3 m/S 760 mmHg 84%
02:00 +10°C° 0 mm 3 m/S 760 mmHg 87%
03:00 +10°C° 0 mm 3 m/S 760 mmHg 87%
04:00 +10°C° 0 mm 3 m/S 760 mmHg 87%
05:00 +10°C° 0 mm 3 m/S 760 mmHg 86%
06:00 +12°C° 0 mm 3 m/S 760 mmHg 76%
07:00 +14°C° 0 mm 3 m/S 760 mmHg 66%
08:00 +17°C° 0 mm 4 m/S 760 mmHg 56%
09:00 +18°C° 0 mm 4 m/S 760 mmHg 52%
10:00 +20°C° 0 mm 4 m/S 760 mmHg 47%
11:00 +21°C° 0 mm 4 m/S 760 mmHg 42%
12:00 +22°C° 0 mm 4 m/S 760 mmHg 42%
13:00 +23°C° 0 mm 4 m/S 760 mmHg 42%
14:00 +25°C° 0 mm 4 m/S 759 mmHg 42%
15:00 +24°C° 0 mm 3 m/S 759 mmHg 45%
16:00 +24°C° 0 mm 3 m/S 759 mmHg 47%
17:00 +24°C° 0 mm 3 m/S 759 mmHg 50%
18:00 +21°C° 0 mm 3 m/S 759 mmHg 59%
19:00 +19°C° 0 mm 2 m/S 759 mmHg 67%
20:00 +17°C° 0 mm 2 m/S 759 mmHg 76%
21:00 +16°C° 0 mm 3 m/S 759 mmHg 77%
22:00 +14°C° 0 mm 3 m/S 759 mmHg 78%
23:00 +13°C° 0 mm 3 m/S 759 mmHg 79%

13 Mai, Donnerstag

Zeit Temperatur Niederschläge Wind Luftdruck Luftfeuchtigkeit
00:00 +13°C° 0 mm 3 m/S 759 mmHg 84%
01:00 +14°C° 0 mm 2 m/S 759 mmHg 89%
02:00 +13°C° 0 mm 2 m/S 759 mmHg 94%
03:00 +13°C° 0 mm 2 m/S 759 mmHg 94%
04:00 +13°C° 0 mm 2 m/S 759 mmHg 94%
05:00 +13°C° 0 mm 2 m/S 759 mmHg 95%
06:00 +14°C° 0 mm 2 m/S 759 mmHg 89%
07:00 +16°C° 0 mm 3 m/S 758 mmHg 83%
08:00 +17°C° 0 mm 3 m/S 758 mmHg 77%
09:00 +17°C° 0.1 mm 3 m/S 758 mmHg 79%
10:00 +17°C° 0.1 mm 3 m/S 757 mmHg 82%
11:00 +17°C° 0.1 mm 4 m/S 757 mmHg 84%
12:00 +18°C° 0.1 mm 4 m/S 756 mmHg 76%
13:00 +20°C° 0.1 mm 5 m/S 755 mmHg 68%
14:00 +22°C° 0.1 mm 5 m/S 754 mmHg 60%
15:00 +20°C° 0.9 mm 6 m/S 754 mmHg 69%
16:00 +17°C° 0.9 mm 6 m/S 754 mmHg 79%
17:00 +15°C° 0.9 mm 6 m/S 753 mmHg 88%
18:00 +14°C° 0.2 mm 6 m/S 753 mmHg 89%
19:00 +14°C° 0.2 mm 5 m/S 754 mmHg 89%
20:00 +13°C° 0.2 mm 4 m/S 754 mmHg 90%
21:00 +13°C° 0 mm 4 m/S 754 mmHg 92%
22:00 +12°C° 0 mm 4 m/S 754 mmHg 94%
23:00 +11°C° 0 mm 3 m/S 754 mmHg 96%
Mehr zeigen

Wir brauchen deine Erlaubnis

Meteoprog und unser Service Anbieter werden persönliche Daten aufbewahren, so wie Cookies, Geräte Bezeichnung oder ähnliche Technologien von deinem Gerät und Prozess, so wie Persönliche Daten Inhalte und Werbungen, genauso wie social Media und den Verkehr zu analysieren.

  • Aufbewahrung und/oder Zugang zu deiner Geräte Informationen.

    Cookies, Geräte Bezeichnung oder andere Informationen, können aufbewahrt oder Zugang zu deinem Gerät erhalten, für den Grund, der oben angegeben wird.

  • Personalisierte Werbung und Inhalte, Messungen, Einblick in das Publikum und Produkt Entwicklung.

    Werbungen und Inhalte können personalisiert werden, basierend auf ein Profil. Mehr Daten können besser personalisierte Werbungen und Inhalte hinzufügen. Werbung und Inhalte können gezeigt und gemessen werden. Einblicke über das Publikum, welche die Werbung gesehen haben und den Inhalt, können abgeleitet werden. So wie Daten können genutzt werden, um es zu verbessern oder die Benutzer Erfahrung zu verbessern das System und die Software.

Wenn du “Ich stimme zu” klickst, erlaubst du uns, die Cookies zu benutzen die Geräte Bezeichnung, den Web oder ähnliche Technologien zu benutzen. Deine Settings, können in deinem Gerät bei deinem Browser geändert werden.

Für den bestimmten Zweck, berechtigten Interessen beruhen darauf, mehr als auf den Inhalt. Du kannst mehr darüber in unseren Privaten und Cookie Politik lesen.